NSZ51M ESSA-EGKK

Flight info

Callsign NSZ51M
Flight time N/A
Altitude 36000
Route ARS N623 BEDLA N866 LAPSI DCT INVOL N866 DETNA DCT ETVOK DCT KEMEG/N0456F380 DCT RERPA DCT UPGAS DCT TIPAN DCT WECOW DCT BINBO DCT AKOKO N866 BUKUT P7 BARMI
Aircraft B738/M-SDE2E3FGHIRWXY/LB1

Departure

Time 2026-05-04 17:31
Airport Stockholm-Arlanda Airport (ESSA)

Arrival

Time N/A
Airport London Gatwick Airport (EGKK)
Time Latitude Longitude Altitude Speed Heading
2026-05-04 16:45 59.65396 17.93528 136 ft 0 kts 75°
2026-05-04 17:20 59.65390 17.93482 137 ft 4 kts 75°
2026-05-04 17:20 59.65384 17.93436 137 ft 3 kts 75°
2026-05-04 17:21 59.65349 17.93391 137 ft 4 kts 346°
2026-05-04 17:21 59.65340 17.93396 137 ft 0 kts 345°
2026-05-04 17:25 59.65352 17.93390 137 ft 6 kts 345°
2026-05-04 17:26 59.65470 17.93207 136 ft 12 kts 314°
2026-05-04 17:26 59.65468 17.92867 137 ft 0 kts 249°
2026-05-04 17:27 59.65459 17.92826 137 ft 0 kts 246°
2026-05-04 17:27 59.65452 17.92792 137 ft 1 kts 246°
2026-05-04 17:28 59.65444 17.92759 137 ft 2 kts 240°
2026-05-04 17:29 59.65616 17.92485 137 ft 20 kts 346°
2026-05-04 17:29 59.65917 17.92331 138 ft 14 kts 281°
2026-05-04 17:30 59.65585 17.91995 143 ft 62 kts 190°
2026-05-04 17:31 59.63928 17.91405 250 ft 163 kts 193°
2026-05-04 17:31 59.61028 17.88740 2231 ft 165 kts 243°
2026-05-04 17:32 59.59596 17.84350 2975 ft 204 kts 240°
2026-05-04 17:33 59.57306 17.76401 4668 ft 243 kts 246°
2026-05-04 17:33 59.56767 17.73264 5481 ft 242 kts 265°
2026-05-04 17:34 59.56368 17.63276 7858 ft 253 kts 252°
2026-05-04 17:34 59.55764 17.60008 8715 ft 254 kts 252°
2026-05-04 17:35 59.53869 17.49733 10288 ft 292 kts 252°
2026-05-04 17:35 59.52409 17.41689 10926 ft 324 kts 252°
2026-05-04 17:35 59.51649 17.37496 11688 ft 325 kts 252°
2026-05-04 17:36 59.50898 17.33346 12510 ft 326 kts 252°
2026-05-04 17:36 59.50135 17.29124 13314 ft 328 kts 252°
2026-05-04 17:36 59.49367 17.24876 14068 ft 330 kts 252°
2026-05-04 17:36 59.48595 17.20610 14845 ft 331 kts 252°
2026-05-04 17:37 59.48071 17.17722 15368 ft 332 kts 252°
2026-05-04 17:37 59.47291 17.13423 16119 ft 334 kts 252°
2026-05-04 17:37 59.46250 17.07696 17126 ft 337 kts 252°
2026-05-04 17:37 59.45728 17.04828 17698 ft 336 kts 252°
2026-05-04 17:38 59.44938 17.00495 18412 ft 337 kts 252°
2026-05-04 17:38 59.44140 16.96135 19007 ft 340 kts 252°
2026-05-04 17:38 59.43334 16.91738 19601 ft 343 kts 252°
2026-05-04 17:38 59.42522 16.87319 20212 ft 345 kts 252°
2026-05-04 17:39 59.40867 16.78416 21398 ft 350 kts 250°
2026-05-04 17:39 59.39773 16.74111 21952 ft 355 kts 245°
2026-05-04 17:39 59.38569 16.69863 22445 ft 358 kts 244°
2026-05-04 17:40 59.37338 16.65557 22805 ft 365 kts 244°